Location: Arnold
(38.6403°N, 100.0462°W)
Time: 18:24:17
(UTC-06:00)

OTV 5 (USA 277) - Visible Passes

Search period start: 11 December 2018 00:00
Search period end: 21 December 2018 00:00
Orbit: 340 x 348 km, 54.5° (Epoch: 10 December)

Date Brightness Start Highest point End Pass type
(mag) Time Alt. Az. Time Alt. Az. Time Alt. Az.
11 Dec ? 07:09:47 10° NNW 07:12:16 26° NE 07:14:45 10° E visible
12 Dec ? 06:00:35 11° NNE 06:00:43 11° NNE 06:01:36 10° NE visible
13 Dec ? 06:23:36 20° N 06:24:42 25° NE 06:27:09 10° E visible
14 Dec ? 06:46:40 21° NW 06:48:26 89° S 06:51:16 10° SE visible
15 Dec ? 05:38:21 18° ENE 05:38:21 18° ENE 05:39:31 10° E visible
15 Dec ? 07:09:48 11° WNW 07:11:56 21° SW 07:14:10 10° S visible
16 Dec ? 06:01:35 46° SE 06:01:35 46° SE 06:03:42 10° SE visible
17 Dec ? 06:24:53 21° SW 06:24:53 21° SW 06:26:40 10° S visible
